Weather History for Baker, MT

Change the Weather History Date:

Saturday, October 2, 2010

  Actual Average Record
Temperature  
Mean Temperature 50 °F -  
Max Temperature 64 °F 79 °F 87 °F (2011)
Min Temperature 36 °F 38 °F 24 °F (2004)
Degree Days  
Heating Degree Days 15    
Moisture  
Dew Point 35 °F    
Average Humidity 58    
Maximum Humidity 89    
Minimum Humidity 38    
Precipitation  
Precipitation 0.00 in - - ()
Sea Level Pressure  
Sea Level Pressure 30.26 in    
Wind  
Wind Speed 17 mph (SE)    
Max Wind Speed 29 mph    
Max Gust Speed 38 mph    
Visibility 10 miles    
Events      
Averages and records for this station are not official NWS values.
T = Trace of Precipitation, MM = Missing Value Source: NWS Daily Summary

Daily Weather History Graph

Daily Weather History Graph

Search for Another Location

Airport:

Trip Planner

Search our weather history database for the weather conditions in past years. The results will help you decide how hot, cold, wet, or windy it might be!

Date:

Astronomy

Oct. 02, 2010 Rise Set
Actual Time 6:56 AM MDT 6:34 PM MDT
Civil Twilight 6:26 AM MDT 7:04 PM MDT
Nautical Twilight 5:52 AM MDT 7:39 PM MDT
Astronomical Twilight 5:16 AM MDT 8:15 PM MDT
Moon 12:22 AM MDT (10/2) 3:42 PM MDT (10/2)
Length of Visible Light 12h 37m
Length of Day
11h 38m
Waning Crescent, 33% of the Moon is Illuminated
Oct 2
Waning Crescent
Oct 7
New
Oct 14
First Quarter
Oct 22
Full
Oct 30
Last Quarter

Hourly Weather History & Observations

Time (MDT) Temp. Windchill Dew Point Humidity Pressure Visibility Wind Dir Wind Speed Gust Speed Precip Events Conditions
12:53 AM 39.9 °F 33.4 °F 34.0 °F 79% 30.40 in 10.0 mi ESE 10.4 mph - N/A   Clear
1:53 AM 39.0 °F 31.8 °F 34.0 °F 82% 30.40 in 10.0 mi ESE 11.5 mph - N/A   Clear
2:53 AM 37.0 °F 29.3 °F 33.1 °F 86% 30.40 in 10.0 mi ESE 11.5 mph - N/A   Clear
3:53 AM 36.0 °F 29.0 °F 33.1 °F 89% 30.40 in 10.0 mi ESE 9.2 mph - N/A   Clear
4:53 AM 39.0 °F 30.6 °F 34.0 °F 82% 30.38 in 10.0 mi SE 15.0 mph 20.7 mph N/A   Clear
5:53 AM 39.0 °F 29.0 °F 34.0 °F 82% 30.38 in 10.0 mi SE 20.7 mph - N/A   Clear
6:53 AM 37.9 °F 27.9 °F 34.0 °F 86% 30.37 in 10.0 mi SE 19.6 mph 27.6 mph N/A   Clear
7:53 AM 41.0 °F 31.6 °F 35.1 °F 79% 30.36 in 10.0 mi SE 20.7 mph 33.4 mph N/A   Clear
8:53 AM 45.0 °F 36.0 °F 36.0 °F 71% 30.35 in 10.0 mi SSE 25.3 mph 35.7 mph N/A   Clear
9:53 AM 50.0 °F - 37.0 °F 61% 30.33 in 10.0 mi SE 25.3 mph 33.4 mph N/A   Clear
10:53 AM 54.0 °F - 37.9 °F 55% 30.31 in 10.0 mi SE 28.8 mph 38.0 mph N/A   Clear
11:53 AM 57.9 °F - 39.0 °F 49% 30.28 in 10.0 mi SSE 25.3 mph 36.8 mph N/A   Clear
12:53 PM 62.1 °F - 37.9 °F 41% 30.25 in 10.0 mi SE 27.6 mph 35.7 mph N/A   Clear
1:53 PM 63.0 °F - 37.9 °F 40% 30.22 in 10.0 mi SSE 27.6 mph 35.7 mph N/A   Clear
2:53 PM 64.0 °F - 39.0 °F 40% 30.20 in 10.0 mi SE 25.3 mph 34.5 mph N/A   Clear
3:53 PM 64.0 °F - 37.9 °F 38% 30.19 in 10.0 mi SSE 24.2 mph 34.5 mph N/A   Clear
4:53 PM 63.0 °F - 37.0 °F 38% 30.17 in 10.0 mi SE 24.2 mph 31.1 mph N/A   Clear
5:53 PM 60.1 °F - 35.1 °F 39% 30.15 in 10.0 mi SSE 20.7 mph 33.4 mph N/A   Clear
6:53 PM 57.0 °F - 34.0 °F 42% 30.14 in 10.0 mi SE 18.4 mph - N/A   Clear
7:53 PM 54.0 °F - 32.0 °F 43% 30.14 in 10.0 mi SE 12.7 mph - N/A   Clear
8:53 PM 52.0 °F - 30.0 °F 43% 30.14 in 10.0 mi SE 12.7 mph - N/A   Clear
9:53 PM 51.1 °F - 30.0 °F 44% 30.12 in 10.0 mi SE 13.8 mph - N/A   Clear
10:53 PM 50.0 °F - 28.9 °F 44% 30.09 in 10.0 mi SE 18.4 mph 25.3 mph N/A   Clear
11:53 PM 48.9 °F - 28.9 °F 46% 30.07 in 10.0 mi SE 15.0 mph - N/A   Clear